Location: Bovenkerk
(52.2915°N, 4.8336°E)
Time: 13:27:11
(UTC+00:00)

USA 234 - Pass Details

Date: 09 April 2020
Orbit: 1102 x 1106 km, 123.0° (Epoch: 14 May)

Event Time Altitude Azimuth Distance (km) Brightness Sun altitude
Rises 23:17:10 0° 67° (ENE) 3,925 6.3 -29.4°
Reaches altitude 10° 23:19:39 10° 65° (ENE) 2,966 5.7 -29.5°
Maximum altitude 23:26:09 70° 344° (NNW) 1,171 3.4 -29.6°
Drops below altitude 10° 23:32:39 10° 263° (W) 2,963 5.5 -29.6°
Sets 23:35:08 0° 261° (W) 3,920 6.1 -29.7°
